Location: Unspecified
(42.7170°S, 0.0000°E)
Time: 23:19:19
(UTC+00:00)

N. Korean satellite - Pass Details

Date: 29 May 2019
Orbit: 455 x 510 km, 97.2° (Epoch: 19 June)

Event Time Altitude Azimuth Distance (km) Brightness Sun altitude
Rises 04:48:24 0° 30° (NNE) 2,484 10.6 -26.9°
Reaches altitude 10° 04:50:29 10° 37° (NE) 1,623 9.7 -26.5°
Enters shadow 04:53:37 39° 100° (E) 725 7.8 -25.9°
